Year,Month,Day,Hour,Minute,Value (Times are PST for windspeed in km/hr)
2008,08,29,00,00,0.00
2008,08,29,00,01,0.00
2008,08,29,00,02,0.00
2008,08,29,00,03,0.00
2008,08,29,00,04,0.00
2008,08,29,00,05,0.00
2008,08,29,00,06,0.00
2008,08,29,00,07,0.00
2008,08,29,00,08,0.00
2008,08,29,00,09,0.00
2008,08,29,00,10,0.00
2008,08,29,00,11,0.00
2008,08,29,00,12,0.20
2008,08,29,00,13,0.20
2008,08,29,00,14,0.20
2008,08,29,00,15,0.00
2008,08,29,00,16,0.00
2008,08,29,00,17,0.00
2008,08,29,00,18,0.00
2008,08,29,00,19,0.00
2008,08,29,00,20,0.00
2008,08,29,00,21,0.00
2008,08,29,00,22,0.00
2008,08,29,00,23,0.00
2008,08,29,00,24,0.00
2008,08,29,00,25,0.00
2008,08,29,00,26,0.00
2008,08,29,00,27,0.00
2008,08,29,00,28,0.00
2008,08,29,00,29,0.00
2008,08,29,00,30,0.00
2008,08,29,00,31,0.00
2008,08,29,00,32,0.00
2008,08,29,00,33,0.00
2008,08,29,00,34,0.00
2008,08,29,00,35,0.00
2008,08,29,00,36,0.00
2008,08,29,00,37,0.00
2008,08,29,00,38,0.00
2008,08,29,00,39,0.10
2008,08,29,00,40,0.00
2008,08,29,00,41,0.00
2008,08,29,00,42,0.00
2008,08,29,00,43,0.00
2008,08,29,00,44,0.00
2008,08,29,00,45,0.00
2008,08,29,00,46,0.00
2008,08,29,00,47,0.00
2008,08,29,00,48,0.00
2008,08,29,00,49,0.00
2008,08,29,00,50,0.00
2008,08,29,00,51,0.00
2008,08,29,00,52,0.00
2008,08,29,00,53,0.00
2008,08,29,00,54,0.00
2008,08,29,00,55,0.00
2008,08,29,00,56,0.00
2008,08,29,00,57,0.00
2008,08,29,00,58,0.00
2008,08,29,00,59,0.00
2008,08,29,01,00,0.00
2008,08,29,01,01,0.00
2008,08,29,01,02,0.00
2008,08,29,01,03,1.40
2008,08,29,01,04,1.30
2008,08,29,01,05,0.00
2008,08,29,01,06,0.00
2008,08,29,01,07,0.00
2008,08,29,01,08,0.00
2008,08,29,01,09,0.00
2008,08,29,01,10,0.00
2008,08,29,01,11,0.00
2008,08,29,01,12,0.00
2008,08,29,01,13,0.00
2008,08,29,01,14,0.00
2008,08,29,01,15,0.00
2008,08,29,01,16,0.00
2008,08,29,01,17,0.00
2008,08,29,01,18,0.00
2008,08,29,01,19,0.00
2008,08,29,01,20,0.00
2008,08,29,01,21,0.00
2008,08,29,01,22,0.00
2008,08,29,01,23,0.00
2008,08,29,01,24,0.00
2008,08,29,01,25,0.00
2008,08,29,01,26,0.00
2008,08,29,01,27,0.00
2008,08,29,01,28,0.00
2008,08,29,01,29,0.00
2008,08,29,01,30,0.00
2008,08,29,01,31,0.00
2008,08,29,01,32,0.00
2008,08,29,01,33,0.00
2008,08,29,01,34,0.00
2008,08,29,01,35,0.00
2008,08,29,01,36,0.00
2008,08,29,01,37,0.00
2008,08,29,01,38,0.00
2008,08,29,01,39,1.70
2008,08,29,01,40,3.90
2008,08,29,01,41,3.40
2008,08,29,01,42,0.70
2008,08,29,01,43,0.90
2008,08,29,01,44,2.10
2008,08,29,01,45,1.50
2008,08,29,01,46,0.00
2008,08,29,01,47,0.20
2008,08,29,01,48,0.30
2008,08,29,01,49,0.10
2008,08,29,01,50,0.00
2008,08,29,01,51,0.00
2008,08,29,01,52,0.00
2008,08,29,01,53,0.00
2008,08,29,01,54,0.00
2008,08,29,01,55,0.00
2008,08,29,01,56,0.00
2008,08,29,01,57,0.00
2008,08,29,01,58,0.00
2008,08,29,01,59,0.00
2008,08,29,02,00,0.00
2008,08,29,02,01,0.00
2008,08,29,02,02,0.00
2008,08,29,02,03,0.00
2008,08,29,02,04,0.00
2008,08,29,02,05,0.00
2008,08,29,02,06,0.00
2008,08,29,02,07,0.00
2008,08,29,02,08,0.00
2008,08,29,02,09,0.00
2008,08,29,02,10,0.00
2008,08,29,02,11,0.00
2008,08,29,02,12,0.00
2008,08,29,02,13,0.00
2008,08,29,02,14,0.00
2008,08,29,02,15,0.00
2008,08,29,02,16,0.00
2008,08,29,02,17,0.00
2008,08,29,02,18,0.00
2008,08,29,02,19,0.00
2008,08,29,02,20,0.00
2008,08,29,02,21,0.00
2008,08,29,02,22,0.00
2008,08,29,02,23,0.00
2008,08,29,02,24,0.00
2008,08,29,02,25,0.00
2008,08,29,02,26,0.00
2008,08,29,02,27,0.00
2008,08,29,02,28,0.00
2008,08,29,02,29,0.00
2008,08,29,02,30,0.00
2008,08,29,02,31,0.00
2008,08,29,02,32,0.00
2008,08,29,02,33,0.00
2008,08,29,02,34,0.00
2008,08,29,02,35,0.00
2008,08,29,02,36,0.00
2008,08,29,02,37,0.00
2008,08,29,02,38,0.00
2008,08,29,02,39,0.00
2008,08,29,02,40,0.00
2008,08,29,02,41,0.00
2008,08,29,02,42,0.00
2008,08,29,02,43,0.00
2008,08,29,02,44,0.00
2008,08,29,02,45,0.00
2008,08,29,02,46,0.00
2008,08,29,02,47,0.00
2008,08,29,02,48,0.00
2008,08,29,02,49,0.00
2008,08,29,02,50,0.00
2008,08,29,02,51,0.00
2008,08,29,02,52,0.00
2008,08,29,02,53,0.00
2008,08,29,02,54,0.00
2008,08,29,02,55,0.00
2008,08,29,02,56,0.00
2008,08,29,02,57,0.00
2008,08,29,02,58,0.00
2008,08,29,02,59,0.00
2008,08,29,03,00,0.00
2008,08,29,03,01,0.00
2008,08,29,03,02,0.00
2008,08,29,03,03,0.00
2008,08,29,03,04,0.00
2008,08,29,03,05,0.00
2008,08,29,03,06,0.00
2008,08,29,03,07,0.00
2008,08,29,03,08,0.00
2008,08,29,03,09,0.00
2008,08,29,03,10,0.00
2008,08,29,03,11,0.10
2008,08,29,03,12,0.00
2008,08,29,03,13,0.00
2008,08,29,03,14,0.00
2008,08,29,03,15,0.10
2008,08,29,03,16,1.70
2008,08,29,03,17,1.20
2008,08,29,03,18,2.50
2008,08,29,03,19,1.50
2008,08,29,03,20,0.00
2008,08,29,03,21,0.00
2008,08,29,03,22,0.00
2008,08,29,03,23,0.00
2008,08,29,03,24,0.00
2008,08,29,03,25,0.00
2008,08,29,03,26,0.00
2008,08,29,03,27,0.00
2008,08,29,03,28,0.00
2008,08,29,03,29,0.00
2008,08,29,03,30,0.00
2008,08,29,03,31,0.00
2008,08,29,03,32,0.60
2008,08,29,03,33,0.00
2008,08,29,03,34,0.00
2008,08,29,03,35,0.00
2008,08,29,03,36,0.00
2008,08,29,03,37,0.00
2008,08,29,03,38,0.00
2008,08,29,03,39,0.00
2008,08,29,03,40,0.00
2008,08,29,03,41,0.00
2008,08,29,03,42,0.00
2008,08,29,03,43,0.00
2008,08,29,03,44,0.00
2008,08,29,03,45,0.10
2008,08,29,03,46,0.00
2008,08,29,03,47,0.00
2008,08,29,03,48,0.30
2008,08,29,03,49,0.00
2008,08,29,03,50,0.00
2008,08,29,03,51,0.00
2008,08,29,03,52,0.00
2008,08,29,03,53,0.00
2008,08,29,03,54,0.00
2008,08,29,03,55,0.00
2008,08,29,03,56,3.20
2008,08,29,03,57,3.40
2008,08,29,03,58,2.90
2008,08,29,03,59,3.00
2008,08,29,04,00,4.20
2008,08,29,04,01,3.50
2008,08,29,04,02,3.00
2008,08,29,04,03,3.00
2008,08,29,04,04,3.50
2008,08,29,04,05,3.20
2008,08,29,04,06,3.70
2008,08,29,04,07,3.20
2008,08,29,04,08,3.50
2008,08,29,04,09,3.10
2008,08,29,04,10,1.50
2008,08,29,04,11,1.10
2008,08,29,04,12,0.00
2008,08,29,04,13,0.00
2008,08,29,04,14,0.00
2008,08,29,04,15,1.40
2008,08,29,04,16,3.10
2008,08,29,04,17,2.00
2008,08,29,04,18,1.80
2008,08,29,04,19,1.70
2008,08,29,04,20,2.00
2008,08,29,04,21,0.00
2008,08,29,04,22,0.00
2008,08,29,04,23,0.00
2008,08,29,04,24,0.00
2008,08,29,04,25,0.10
2008,08,29,04,26,0.00
2008,08,29,04,27,0.00
2008,08,29,04,28,0.10
2008,08,29,04,29,0.00
2008,08,29,04,30,0.00
2008,08,29,04,31,0.00
2008,08,29,04,32,0.00
2008,08,29,04,33,0.00
2008,08,29,04,34,0.00
2008,08,29,04,35,0.00
2008,08,29,04,36,0.00
2008,08,29,04,37,0.00
2008,08,29,04,38,0.10
2008,08,29,04,39,0.00
2008,08,29,04,40,0.00
2008,08,29,04,41,0.00
2008,08,29,04,42,0.00
2008,08,29,04,43,0.00
2008,08,29,04,44,0.00
2008,08,29,04,45,0.00
2008,08,29,04,46,1.40
2008,08,29,04,47,1.10
2008,08,29,04,48,0.00
2008,08,29,04,49,0.00
2008,08,29,04,50,0.00
2008,08,29,04,51,0.00
2008,08,29,04,52,0.00
2008,08,29,04,53,0.20
2008,08,29,04,54,3.10
2008,08,29,04,55,4.40
2008,08,29,04,56,4.40
2008,08,29,04,57,4.60
2008,08,29,04,58,3.50
2008,08,29,04,59,2.60
2008,08,29,05,00,0.30
2008,08,29,05,01,0.00
2008,08,29,05,02,0.00
2008,08,29,05,03,0.00
2008,08,29,05,04,0.00
2008,08,29,05,05,0.00
2008,08,29,05,06,0.30
2008,08,29,05,07,0.10
2008,08,29,05,08,0.00
2008,08,29,05,09,0.00
2008,08,29,05,10,0.00
2008,08,29,05,11,0.00
2008,08,29,05,12,0.00
2008,08,29,05,13,0.00
2008,08,29,05,14,0.00
2008,08,29,05,15,0.60
2008,08,29,05,16,3.30
2008,08,29,05,17,1.20
2008,08,29,05,18,0.00
2008,08,29,05,19,0.00
2008,08,29,05,20,0.00
2008,08,29,05,21,0.00
2008,08,29,05,22,0.00
2008,08,29,05,23,0.00
2008,08,29,05,24,0.00
2008,08,29,05,25,0.60
2008,08,29,05,26,1.00
2008,08,29,05,27,0.00
2008,08,29,05,28,0.00
2008,08,29,05,29,0.00
2008,08,29,05,30,0.00
2008,08,29,05,31,0.00
2008,08,29,05,32,0.00
2008,08,29,05,33,0.30
2008,08,29,05,34,2.70
2008,08,29,05,35,3.10
2008,08,29,05,36,2.30
2008,08,29,05,37,0.00
2008,08,29,05,38,0.00
2008,08,29,05,39,0.60
2008,08,29,05,40,2.40
2008,08,29,05,41,1.60
2008,08,29,05,42,0.60
2008,08,29,05,43,0.00
2008,08,29,05,44,0.00
2008,08,29,05,45,0.00
2008,08,29,05,46,1.20
2008,08,29,05,47,1.90
2008,08,29,05,48,0.00
2008,08,29,05,49,0.90
2008,08,29,05,50,0.20
2008,08,29,05,51,0.00
2008,08,29,05,52,0.00
2008,08,29,05,53,0.00
2008,08,29,05,54,0.00
2008,08,29,05,55,0.00
2008,08,29,05,56,0.00
2008,08,29,05,57,0.00
2008,08,29,05,58,0.10
2008,08,29,05,59,0.00
2008,08,29,06,00,0.00
2008,08,29,06,01,0.00
2008,08,29,06,02,0.00
2008,08,29,06,03,0.00
2008,08,29,06,04,0.00
2008,08,29,06,05,0.00
2008,08,29,06,06,0.00
2008,08,29,06,07,0.00
2008,08,29,06,08,0.00
2008,08,29,06,09,0.00
2008,08,29,06,10,0.00
2008,08,29,06,11,0.00
2008,08,29,06,12,0.00
2008,08,29,06,13,0.00
2008,08,29,06,14,0.00
2008,08,29,06,15,0.00
2008,08,29,06,16,0.00
2008,08,29,06,17,0.00
2008,08,29,06,18,0.00
2008,08,29,06,19,0.00
2008,08,29,06,20,0.00
2008,08,29,06,21,0.00
2008,08,29,06,22,0.00
2008,08,29,06,23,0.00
2008,08,29,06,24,0.00
2008,08,29,06,25,2.60
2008,08,29,06,26,2.30
2008,08,29,06,27,0.00
2008,08,29,06,28,0.00
2008,08,29,06,29,0.00
2008,08,29,06,30,0.00
2008,08,29,06,31,0.00
2008,08,29,06,32,0.00
2008,08,29,06,33,0.00
2008,08,29,06,34,0.50
2008,08,29,06,35,0.00
2008,08,29,06,36,0.00
2008,08,29,06,37,0.00
2008,08,29,06,38,0.20
2008,08,29,06,39,0.50
2008,08,29,06,40,1.30
2008,08,29,06,41,0.10
2008,08,29,06,42,0.00
2008,08,29,06,43,0.00
2008,08,29,06,44,0.00
2008,08,29,06,45,0.00
2008,08,29,06,46,0.00
2008,08,29,06,47,0.00
2008,08,29,06,48,0.00
2008,08,29,06,49,0.00
2008,08,29,06,50,0.00
2008,08,29,06,51,0.00
2008,08,29,06,52,0.00
2008,08,29,06,53,0.00
2008,08,29,06,54,0.00
2008,08,29,06,55,0.00
2008,08,29,06,56,0.00
2008,08,29,06,57,0.00
2008,08,29,06,58,0.00
2008,08,29,06,59,0.00
2008,08,29,07,00,2.60
2008,08,29,07,01,2.70
2008,08,29,07,02,2.10
2008,08,29,07,03,2.60
2008,08,29,07,04,1.20
2008,08,29,07,05,0.40
2008,08,29,07,06,0.30
2008,08,29,07,07,0.00
2008,08,29,07,08,0.00
2008,08,29,07,09,0.00
2008,08,29,07,10,0.00
2008,08,29,07,11,0.40
2008,08,29,07,12,1.40
2008,08,29,07,13,1.80
2008,08,29,07,14,2.50
2008,08,29,07,15,1.90
2008,08,29,07,16,3.30
2008,08,29,07,17,3.20
2008,08,29,07,18,2.10
2008,08,29,07,19,0.40
2008,08,29,07,20,0.60
2008,08,29,07,21,0.00
2008,08,29,07,22,0.00
2008,08,29,07,23,0.00
2008,08,29,07,24,0.90
2008,08,29,07,25,2.60
2008,08,29,07,26,0.80
2008,08,29,07,27,0.20
2008,08,29,07,28,0.00
2008,08,29,07,29,0.00
2008,08,29,07,30,0.00
2008,08,29,07,31,0.20
2008,08,29,07,32,0.20
2008,08,29,07,33,2.50
2008,08,29,07,34,1.40
2008,08,29,07,35,0.00
2008,08,29,07,36,0.00
2008,08,29,07,37,0.00
2008,08,29,07,38,0.60
2008,08,29,07,39,0.00
2008,08,29,07,40,0.00
2008,08,29,07,41,0.00
2008,08,29,07,42,0.00
2008,08,29,07,43,0.00
2008,08,29,07,44,0.00
2008,08,29,07,45,0.00
2008,08,29,07,46,0.00
2008,08,29,07,47,0.00
2008,08,29,07,48,0.00
2008,08,29,07,49,0.00
2008,08,29,07,50,0.00
2008,08,29,07,51,0.00
2008,08,29,07,52,0.00
2008,08,29,07,53,1.50
2008,08,29,07,54,2.20
2008,08,29,07,55,0.70
2008,08,29,07,56,0.20
2008,08,29,07,57,0.00
2008,08,29,07,58,0.40
2008,08,29,07,59,1.30
2008,08,29,08,00,0.50
2008,08,29,08,01,1.70
2008,08,29,08,02,0.40
2008,08,29,08,03,0.00
2008,08,29,08,04,0.00
2008,08,29,08,05,0.00
2008,08,29,08,06,0.00
2008,08,29,08,07,0.20
2008,08,29,08,08,0.10
2008,08,29,08,09,0.00
2008,08,29,08,10,0.00
2008,08,29,08,11,0.00
2008,08,29,08,12,0.00
2008,08,29,08,13,0.00
2008,08,29,08,14,2.80
2008,08,29,08,15,2.30
2008,08,29,08,16,1.60
2008,08,29,08,17,0.20
2008,08,29,08,18,0.00
2008,08,29,08,19,0.00
2008,08,29,08,20,0.10
2008,08,29,08,21,1.40
2008,08,29,08,22,2.50
2008,08,29,08,23,0.20
2008,08,29,08,24,0.10
2008,08,29,08,25,0.00
2008,08,29,08,26,0.00
2008,08,29,08,27,0.00
2008,08,29,08,28,0.00
2008,08,29,08,29,0.00
2008,08,29,08,30,0.00
2008,08,29,08,31,0.00
2008,08,29,08,32,0.00
2008,08,29,08,33,0.00
2008,08,29,08,34,0.00
2008,08,29,08,35,0.00
2008,08,29,08,36,0.00
2008,08,29,08,37,0.00
2008,08,29,08,38,0.00
2008,08,29,08,39,0.00
2008,08,29,08,40,0.10
2008,08,29,08,41,0.50
2008,08,29,08,42,0.10
2008,08,29,08,43,0.00
2008,08,29,08,44,1.50
2008,08,29,08,45,0.80
2008,08,29,08,46,1.60
2008,08,29,08,47,0.00
2008,08,29,08,48,0.00
2008,08,29,08,49,0.00
2008,08,29,08,50,0.00
2008,08,29,08,51,0.10
2008,08,29,08,52,0.10
2008,08,29,08,53,0.00
2008,08,29,08,54,0.20
2008,08,29,08,55,0.00
2008,08,29,08,56,0.60
2008,08,29,08,57,0.10
2008,08,29,08,58,0.70
2008,08,29,08,59,0.00
2008,08,29,09,00,0.20
2008,08,29,09,01,0.10
2008,08,29,09,02,0.00
2008,08,29,09,03,0.00
2008,08,29,09,04,0.20
2008,08,29,09,05,1.40
2008,08,29,09,06,0.10
2008,08,29,09,07,1.70
2008,08,29,09,08,3.10
2008,08,29,09,09,1.70
2008,08,29,09,10,0.50
2008,08,29,09,11,0.00
2008,08,29,09,12,0.00
2008,08,29,09,13,0.10
2008,08,29,09,14,4.60
2008,08,29,09,15,4.30
2008,08,29,09,16,2.80
2008,08,29,09,17,4.00
2008,08,29,09,18,5.60
2008,08,29,09,19,1.60
2008,08,29,09,20,5.60
2008,08,29,09,21,6.30
2008,08,29,09,22,3.40
2008,08,29,09,23,3.10
2008,08,29,09,24,2.80
2008,08,29,09,25,5.60
2008,08,29,09,26,4.80
2008,08,29,09,27,4.40
2008,08,29,09,28,4.00
2008,08,29,09,29,0.20
2008,08,29,09,30,0.60
2008,08,29,09,31,2.50
2008,08,29,09,32,4.20
2008,08,29,09,33,6.20
2008,08,29,09,34,5.60
2008,08,29,09,35,4.70
2008,08,29,09,36,3.10
2008,08,29,09,37,0.60
2008,08,29,09,38,0.10
2008,08,29,09,39,5.10
2008,08,29,09,40,5.00
2008,08,29,09,41,5.40
2008,08,29,09,42,6.40
2008,08,29,09,43,5.60
2008,08,29,09,44,4.50
2008,08,29,09,45,5.80
2008,08,29,09,46,3.50
2008,08,29,09,47,3.00
2008,08,29,09,48,5.20
2008,08,29,09,49,4.40
2008,08,29,09,50,4.60
2008,08,29,09,51,4.40
2008,08,29,09,52,5.40
2008,08,29,09,53,6.60
2008,08,29,09,54,5.90
2008,08,29,09,55,6.40
2008,08,29,09,56,4.30
2008,08,29,09,57,3.70
2008,08,29,09,58,4.00
2008,08,29,09,59,5.40
2008,08,29,10,00,5.10
2008,08,29,10,01,3.70
2008,08,29,10,02,3.50
2008,08,29,10,03,3.20
2008,08,29,10,04,4.60
2008,08,29,10,05,5.70
2008,08,29,10,06,4.50
2008,08,29,10,07,0.10
2008,08,29,10,08,0.90
2008,08,29,10,09,3.00
2008,08,29,10,10,1.70
2008,08,29,10,11,1.60
2008,08,29,10,12,0.00
2008,08,29,10,13,0.10
2008,08,29,10,14,3.50
2008,08,29,10,15,1.60
2008,08,29,10,16,0.40
2008,08,29,10,17,1.50
2008,08,29,10,18,1.40
2008,08,29,10,19,3.40
2008,08,29,10,20,4.60
2008,08,29,10,21,3.10
2008,08,29,10,22,8.50
2008,08,29,10,23,7.30
2008,08,29,10,24,4.50
2008,08,29,10,25,5.90
2008,08,29,10,26,8.70
2008,08,29,10,27,9.00
2008,08,29,10,28,7.50
2008,08,29,10,29,6.30
2008,08,29,10,30,5.80
2008,08,29,10,31,5.60
2008,08,29,10,32,3.90
2008,08,29,10,33,2.60
2008,08,29,10,34,0.90
2008,08,29,10,35,3.40
2008,08,29,10,36,3.40
2008,08,29,10,37,2.00
2008,08,29,10,38,0.10
2008,08,29,10,39,1.20
2008,08,29,10,40,0.00
2008,08,29,10,41,0.60
2008,08,29,10,42,0.90
2008,08,29,10,43,0.80
2008,08,29,10,44,0.10
2008,08,29,10,45,1.80
2008,08,29,10,46,2.20
2008,08,29,10,47,2.70
2008,08,29,10,48,0.10
2008,08,29,10,49,1.40
2008,08,29,10,50,0.40
2008,08,29,10,51,0.60
2008,08,29,10,52,0.00
2008,08,29,10,53,0.10
2008,08,29,10,54,3.30
2008,08,29,10,55,3.40
2008,08,29,10,56,2.30
2008,08,29,10,57,1.70
2008,08,29,10,58,2.40
2008,08,29,10,59,5.70
2008,08,29,11,00,6.70
2008,08,29,11,01,5.80
2008,08,29,11,02,4.60
2008,08,29,11,03,3.80
2008,08,29,11,04,3.30
2008,08,29,11,05,4.70
2008,08,29,11,06,4.10
2008,08,29,11,07,5.40
2008,08,29,11,08,0.80
2008,08,29,11,09,4.50
2008,08,29,11,10,4.50
2008,08,29,11,11,3.90
2008,08,29,11,12,2.80
2008,08,29,11,13,4.10
2008,08,29,11,14,0.20
2008,08,29,11,15,0.20
2008,08,29,11,16,2.80
2008,08,29,11,17,3.60
2008,08,29,11,18,2.90
2008,08,29,11,19,5.80
2008,08,29,11,20,2.70
2008,08,29,11,21,3.20
2008,08,29,11,22,6.10
2008,08,29,11,23,5.00
2008,08,29,11,24,8.40
2008,08,29,11,25,6.50
2008,08,29,11,26,13.50
2008,08,29,11,27,12.70
2008,08,29,11,28,4.60
2008,08,29,11,29,6.20
2008,08,29,11,30,5.70
2008,08,29,11,31,5.90
2008,08,29,11,32,6.70
2008,08,29,11,33,7.60
2008,08,29,11,34,5.50
2008,08,29,11,35,10.00
2008,08,29,11,36,8.50
2008,08,29,11,37,11.30
2008,08,29,11,38,8.50
2008,08,29,11,39,17.90
2008,08,29,11,40,8.80
2008,08,29,11,41,8.90
2008,08,29,11,42,10.40
2008,08,29,11,43,9.90
2008,08,29,11,44,10.00
2008,08,29,11,45,9.30
2008,08,29,11,46,5.90
2008,08,29,11,47,9.90
2008,08,29,11,48,5.80
2008,08,29,11,49,9.40
2008,08,29,11,50,10.20
2008,08,29,11,51,10.60
2008,08,29,11,52,6.20
2008,08,29,11,53,8.60
2008,08,29,11,54,5.90
2008,08,29,11,55,7.20
2008,08,29,11,56,4.20
2008,08,29,11,57,7.10
2008,08,29,11,58,5.10
2008,08,29,11,59,7.70
2008,08,29,12,00,7.10
2008,08,29,12,01,9.40
2008,08,29,12,02,8.30
2008,08,29,12,03,6.20
2008,08,29,12,04,7.50
2008,08,29,12,05,6.70
2008,08,29,12,06,7.00
2008,08,29,12,07,5.00
2008,08,29,12,08,1.70
2008,08,29,12,09,3.60
2008,08,29,12,10,5.20
2008,08,29,12,11,1.50
2008,08,29,12,12,0.20
2008,08,29,12,13,3.80
2008,08,29,12,14,3.90
2008,08,29,12,15,0.80
2008,08,29,12,16,9.90
2008,08,29,12,17,12.10
2008,08,29,12,18,6.30
2008,08,29,12,19,5.20
2008,08,29,12,20,6.90
2008,08,29,12,21,4.00
2008,08,29,12,22,4.30
2008,08,29,12,23,10.50
2008,08,29,12,24,10.30
2008,08,29,12,25,7.70
2008,08,29,12,26,3.80
2008,08,29,12,27,7.40
2008,08,29,12,28,6.00
2008,08,29,12,29,16.60
2008,08,29,12,30,17.90
2008,08,29,12,31,12.20
2008,08,29,12,32,11.50
2008,08,29,12,33,12.10
2008,08,29,12,34,8.40
2008,08,29,12,35,10.20
2008,08,29,12,36,11.80
2008,08,29,12,37,10.80
2008,08,29,12,38,13.90
2008,08,29,12,39,9.00
2008,08,29,12,40,7.90
2008,08,29,12,41,6.30
2008,08,29,12,42,10.20
2008,08,29,12,43,8.00
2008,08,29,12,44,11.30
2008,08,29,12,45,13.10
2008,08,29,12,46,11.20
2008,08,29,12,47,13.10
2008,08,29,12,48,14.70
2008,08,29,12,49,10.60
2008,08,29,12,50,16.70
2008,08,29,12,51,13.30
2008,08,29,12,52,18.40
2008,08,29,12,53,9.90
2008,08,29,12,54,10.00
2008,08,29,12,55,8.00
2008,08,29,12,56,8.50
2008,08,29,12,57,8.40
2008,08,29,12,58,13.30
2008,08,29,12,59,11.20
2008,08,29,13,00,14.90
2008,08,29,13,01,8.20
2008,08,29,13,02,8.50
2008,08,29,13,03,12.20
2008,08,29,13,04,10.60
2008,08,29,13,05,12.10
2008,08,29,13,06,10.50
2008,08,29,13,07,12.70
2008,08,29,13,08,18.10
2008,08,29,13,09,10.60
2008,08,29,13,10,15.90
2008,08,29,13,11,10.70
2008,08,29,13,12,8.50
2008,08,29,13,13,13.30
2008,08,29,13,14,16.80
2008,08,29,13,15,13.60
2008,08,29,13,16,13.70
2008,08,29,13,17,14.40
2008,08,29,13,18,17.40
2008,08,29,13,19,15.20
2008,08,29,13,20,10.60
2008,08,29,13,21,17.10
2008,08,29,13,22,11.30
2008,08,29,13,23,12.10
2008,08,29,13,24,14.90
2008,08,29,13,25,16.90
2008,08,29,13,26,8.80
2008,08,29,13,27,9.50
2008,08,29,13,28,12.20
2008,08,29,13,29,10.40
2008,08,29,13,30,14.10
2008,08,29,13,31,16.40
2008,08,29,13,32,14.30
2008,08,29,13,33,16.40
2008,08,29,13,34,9.90
2008,08,29,13,35,10.80
2008,08,29,13,36,6.60
2008,08,29,13,37,11.40
2008,08,29,13,38,19.70
2008,08,29,13,39,22.30
2008,08,29,13,40,13.00
2008,08,29,13,41,18.00
2008,08,29,13,42,13.20
2008,08,29,13,43,19.70
2008,08,29,13,44,26.60
2008,08,29,13,45,20.10
2008,08,29,13,46,21.40
2008,08,29,13,47,24.70
2008,08,29,13,48,23.30
2008,08,29,13,49,21.20
2008,08,29,13,50,22.50
2008,08,29,13,51,19.00
2008,08,29,13,52,24.00
2008,08,29,13,53,20.80
2008,08,29,13,54,26.80
2008,08,29,13,55,27.20
2008,08,29,13,56,31.20
2008,08,29,13,57,28.00
2008,08,29,13,58,27.60
2008,08,29,13,59,25.20
2008,08,29,14,00,28.40
2008,08,29,14,01,27.00
2008,08,29,14,02,21.90
2008,08,29,14,03,22.90
2008,08,29,14,04,19.70
2008,08,29,14,05,20.30
2008,08,29,14,06,21.80
2008,08,29,14,07,15.90
2008,08,29,14,08,17.30
2008,08,29,14,09,19.10
2008,08,29,14,10,17.80
2008,08,29,14,11,16.20
2008,08,29,14,12,13.00
2008,08,29,14,13,23.10
2008,08,29,14,14,17.10
2008,08,29,14,15,23.60
2008,08,29,14,16,13.40
2008,08,29,14,17,22.30
2008,08,29,14,18,13.10
2008,08,29,14,19,16.60
2008,08,29,14,20,29.50
2008,08,29,14,21,22.20
2008,08,29,14,22,20.30
2008,08,29,14,23,27.70
2008,08,29,14,24,23.30
2008,08,29,14,25,27.30
2008,08,29,14,26,26.10
2008,08,29,14,27,30.00
2008,08,29,14,28,21.40
2008,08,29,14,29,35.20
2008,08,29,14,30,33.20
2008,08,29,14,31,27.80
2008,08,29,14,32,23.70
2008,08,29,14,33,28.50
2008,08,29,14,34,21.40
2008,08,29,14,35,23.00
2008,08,29,14,36,24.20
2008,08,29,14,37,23.90
2008,08,29,14,38,24.30
2008,08,29,14,39,32.70
2008,08,29,14,40,20.90
2008,08,29,14,41,24.10
2008,08,29,14,42,12.80
2008,08,29,14,43,15.90
2008,08,29,14,44,17.40
2008,08,29,14,45,12.30
2008,08,29,14,46,19.80
2008,08,29,14,47,22.90
2008,08,29,14,48,11.50
2008,08,29,14,49,10.40
2008,08,29,14,50,11.60
2008,08,29,14,51,25.20
2008,08,29,14,52,15.20
2008,08,29,14,53,24.30
2008,08,29,14,54,29.70
2008,08,29,14,55,22.40
2008,08,29,14,56,27.70
2008,08,29,14,57,18.30
2008,08,29,14,58,23.60
2008,08,29,14,59,23.00
2008,08,29,15,00,18.10
2008,08,29,15,01,18.00
2008,08,29,15,02,13.60
2008,08,29,15,03,15.00
2008,08,29,15,04,22.50
2008,08,29,15,05,25.10
2008,08,29,15,06,21.80
2008,08,29,15,07,34.30
2008,08,29,15,08,19.40
2008,08,29,15,09,21.60
2008,08,29,15,10,15.00
2008,08,29,15,11,13.70
2008,08,29,15,12,4.10
2008,08,29,15,13,10.60
2008,08,29,15,14,18.10
2008,08,29,15,15,26.00
2008,08,29,15,16,9.60
2008,08,29,15,17,23.20
2008,08,29,15,18,14.10
2008,08,29,15,19,14.70
2008,08,29,15,20,20.20
2008,08,29,15,21,12.40
2008,08,29,15,22,21.10
2008,08,29,15,23,17.00
2008,08,29,15,24,16.90
2008,08,29,15,25,21.90
2008,08,29,15,26,13.20
2008,08,29,15,27,14.90
2008,08,29,15,28,23.70
2008,08,29,15,29,25.40
2008,08,29,15,30,30.10
2008,08,29,15,31,21.80
2008,08,29,15,32,24.70
2008,08,29,15,33,23.90
2008,08,29,15,34,20.90
2008,08,29,15,35,14.00
2008,08,29,15,36,13.00
2008,08,29,15,37,14.90
2008,08,29,15,38,16.00
2008,08,29,15,39,6.70
2008,08,29,15,40,15.90
2008,08,29,15,41,19.50
2008,08,29,15,42,12.90
2008,08,29,15,43,10.40
2008,08,29,15,44,11.80
2008,08,29,15,45,19.60
2008,08,29,15,46,20.40
2008,08,29,15,47,18.70
2008,08,29,15,48,17.00
2008,08,29,15,49,18.60
2008,08,29,15,50,15.90
2008,08,29,15,51,14.90
2008,08,29,15,52,6.10
2008,08,29,15,53,10.90
2008,08,29,15,54,9.10
2008,08,29,15,55,11.10
2008,08,29,15,56,12.40
2008,08,29,15,57,13.50
2008,08,29,15,58,18.80
2008,08,29,15,59,13.90
2008,08,29,16,00,9.80
2008,08,29,16,01,11.50
2008,08,29,16,02,6.50
2008,08,29,16,03,14.90
2008,08,29,16,04,13.20
2008,08,29,16,05,22.80
2008,08,29,16,06,12.50
2008,08,29,16,07,9.20
2008,08,29,16,08,14.10
2008,08,29,16,09,8.70
2008,08,29,16,10,20.10
2008,08,29,16,11,18.90
2008,08,29,16,12,14.90
2008,08,29,16,13,14.80
2008,08,29,16,14,16.70
2008,08,29,16,15,16.20
2008,08,29,16,16,14.60
2008,08,29,16,17,14.20
2008,08,29,16,18,18.10
2008,08,29,16,19,11.50
2008,08,29,16,20,13.90
2008,08,29,16,21,16.40
2008,08,29,16,22,18.40
2008,08,29,16,23,13.60
2008,08,29,16,24,15.70
2008,08,29,16,25,14.20
2008,08,29,16,26,15.30
2008,08,29,16,27,19.00
2008,08,29,16,28,8.90
2008,08,29,16,29,15.10
2008,08,29,16,30,10.60
2008,08,29,16,31,10.40
2008,08,29,16,32,14.70
2008,08,29,16,33,14.80
2008,08,29,16,34,12.50
2008,08,29,16,35,10.90
2008,08,29,16,36,17.00
2008,08,29,16,37,17.70
2008,08,29,16,38,11.60
2008,08,29,16,39,11.70
2008,08,29,16,40,12.20
2008,08,29,16,41,18.10
2008,08,29,16,42,13.50
2008,08,29,16,43,16.80
2008,08,29,16,44,18.00
2008,08,29,16,45,17.90
2008,08,29,16,46,17.60
2008,08,29,16,47,15.20
2008,08,29,16,48,14.50
2008,08,29,16,49,13.60
2008,08,29,16,50,11.70
2008,08,29,16,51,18.40
2008,08,29,16,52,12.70
2008,08,29,16,53,12.80
2008,08,29,16,54,14.00
2008,08,29,16,55,14.20
2008,08,29,16,56,12.90
2008,08,29,16,57,7.80
2008,08,29,16,58,11.80
2008,08,29,16,59,17.60
2008,08,29,17,00,12.50
2008,08,29,17,01,12.20
2008,08,29,17,02,9.20
2008,08,29,17,03,15.00
2008,08,29,17,04,14.70
2008,08,29,17,05,5.80
2008,08,29,17,06,8.70
2008,08,29,17,07,19.50
2008,08,29,17,08,16.00
2008,08,29,17,09,12.60
2008,08,29,17,10,9.20
2008,08,29,17,11,14.00
2008,08,29,17,12,12.10
2008,08,29,17,13,10.30
2008,08,29,17,14,17.60
2008,08,29,17,15,11.80
2008,08,29,17,16,14.30
2008,08,29,17,17,10.40
2008,08,29,17,18,8.60
2008,08,29,17,19,13.20
2008,08,29,17,20,11.30
2008,08,29,17,21,9.00
2008,08,29,17,22,17.60
2008,08,29,17,23,11.40
2008,08,29,17,24,14.90
2008,08,29,17,25,17.20
2008,08,29,17,26,11.30
2008,08,29,17,27,11.20
2008,08,29,17,28,11.30
2008,08,29,17,29,7.60
2008,08,29,17,30,13.00
2008,08,29,17,31,9.30
2008,08,29,17,32,10.30
2008,08,29,17,33,6.30
2008,08,29,17,34,15.10
2008,08,29,17,35,12.20
2008,08,29,17,36,6.20
2008,08,29,17,37,6.90
2008,08,29,17,38,18.60
2008,08,29,17,39,14.10
2008,08,29,17,40,8.50
2008,08,29,17,41,7.10
2008,08,29,17,42,7.20
2008,08,29,17,43,12.60
2008,08,29,17,44,13.90
2008,08,29,17,45,17.20
2008,08,29,17,46,11.10
2008,08,29,17,47,12.20
2008,08,29,17,48,10.00
2008,08,29,17,49,12.80
2008,08,29,17,50,10.80
2008,08,29,17,51,11.80
2008,08,29,17,52,14.40
2008,08,29,17,53,4.50